Time,TemperatureF,DewpointF,PressureIn,WindDirection,WindDirectionDegrees,WindSpeedMPH,WindSpeedGustMPH,Humidity,HourlyPrecipIn,Conditions,Clouds,dailyrainin,SolarRadiationWatts/m^2,SoftwareType,DateUTC
2013-02-14 00:00:00,34.0,33.2,29.00,WSW,247,1.0,1.0,97,0.00,,---,0.00,0.00,VWS V14.01,2013-02-14 05:00:00,
2013-02-14 00:01:00,34.0,33.0,29.01,SSW,202,2.0,2.0,96,0.00,,---,0.00,0.00,VWS V14.01,2013-02-14 05:01:00,
2013-02-14 00:06:00,34.0,33.5,29.01,SSW,202,1.0,4.0,98,0.00,,---,0.00,0.00,VWS V14.01,2013-02-14 05:06:00,
2013-02-14 00:11:00,34.0,33.2,29.01,South,180,0.0,0.0,97,0.00,,---,0.00,0.00,VWS V14.01,2013-02-14 05:11:00,
2013-02-14 00:16:00,34.0,33.8,29.01,SSW,202,2.0,4.0,99,0.00,,---,0.00,0.00,VWS V14.01,2013-02-14 05:16:00,
2013-02-14 00:21:00,34.0,33.8,29.01,SSW,202,0.0,3.0,99,0.00,,---,0.00,0.00,VWS V14.01,2013-02-14 05:21:00,
2013-02-14 00:26:00,34.0,34.0,29.01,SSW,202,0.0,4.0,100,0.00,,---,0.00,0.00,VWS V14.01,2013-02-14 05:26:00,
2013-02-14 00:31:00,34.0,34.0,29.01,SW,225,0.0,2.0,100,0.00,,---,0.00,0.00,VWS V14.01,2013-02-14 05:31:00,
2013-02-14 00:36:00,34.0,34.0,29.01,SSW,202,3.0,4.0,100,0.00,,---,0.00,0.00,VWS V14.01,2013-02-14 05:36:00,
2013-02-14 00:41:00,34.0,34.0,29.02,SSW,202,0.0,4.0,100,0.00,,---,0.00,0.00,VWS V14.01,2013-02-14 05:41:00,
2013-02-14 00:46:00,34.0,34.0,29.02,SW,225,6.0,6.0,100,0.00,,---,0.00,0.00,VWS V14.01,2013-02-14 05:46:00,
2013-02-14 00:51:00,34.0,34.0,29.02,SSW,202,0.0,5.0,100,0.00,,---,0.00,0.00,VWS V14.01,2013-02-14 05:51:00,
2013-02-14 00:56:00,34.0,34.0,29.02,SSW,202,0.0,1.0,100,0.00,,---,0.00,0.00,VWS V14.01,2013-02-14 05:56:00,
2013-02-14 01:01:00,34.0,34.0,29.01,South,180,3.0,4.0,100,0.00,,---,0.00,0.00,VWS V14.01,2013-02-14 06:01:00,
2013-02-14 01:06:00,34.0,34.0,29.01,WSW,247,2.0,3.0,100,0.00,,---,0.00,0.00,VWS V14.01,2013-02-14 06:06:00,
2013-02-14 01:11:00,34.0,34.0,29.01,SSW,202,2.0,2.0,100,0.00,,---,0.00,0.00,VWS V14.01,2013-02-14 06:11:00,
2013-02-14 01:16:00,33.0,33.0,29.01,SSW,202,3.0,5.0,100,0.00,,---,0.00,0.00,VWS V14.01,2013-02-14 06:16:00,
2013-02-14 01:21:00,34.0,34.0,29.01,SSW,202,0.0,2.0,100,0.00,,---,0.00,0.00,VWS V14.01,2013-02-14 06:21:00,
2013-02-14 01:26:00,33.0,33.0,29.01,SSW,202,1.0,4.0,100,0.00,,---,0.00,0.00,VWS V14.01,2013-02-14 06:26:00,
2013-02-14 01:31:00,33.0,33.0,29.02,South,180,1.0,3.0,100,0.00,,---,0.00,0.00,VWS V14.01,2013-02-14 06:31:00,
2013-02-14 01:36:00,33.0,33.0,29.02,SSW,202,1.0,2.0,100,0.00,,---,0.00,0.00,VWS V14.01,2013-02-14 06:36:00,
2013-02-14 01:41:00,33.0,33.0,29.01,SSE,157,2.0,2.0,100,0.00,,---,0.00,0.00,VWS V14.01,2013-02-14 06:41:00,
2013-02-14 01:46:00,33.0,33.0,29.01,South,180,2.0,3.0,100,0.00,,---,0.00,0.00,VWS V14.01,2013-02-14 06:46:00,
2013-02-14 01:51:00,33.0,33.0,29.01,SSW,202,2.0,2.0,100,0.00,,---,0.00,0.00,VWS V14.01,2013-02-14 06:51:00,
2013-02-14 01:56:00,33.0,33.0,29.01,SSE,157,3.0,4.0,100,0.00,,---,0.00,0.00,VWS V14.01,2013-02-14 06:56:00,
2013-02-14 02:01:00,33.0,33.0,29.01,SSW,202,0.0,2.0,100,0.00,,---,0.00,0.00,VWS V14.01,2013-02-14 07:01:00,
2013-02-14 02:06:00,33.0,33.0,29.01,SSW,202,0.0,1.0,100,0.00,,---,0.00,0.00,VWS V14.01,2013-02-14 07:06:00,
2013-02-14 02:11:00,33.0,33.0,28.99,South,180,1.0,5.0,100,0.00,,---,0.00,0.00,VWS V14.01,2013-02-14 07:11:00,
2013-02-14 02:16:00,33.0,33.0,28.99,South,180,3.0,4.0,100,0.00,,---,0.00,0.00,VWS V14.01,2013-02-14 07:16:00,
2013-02-14 02:21:00,33.0,33.0,29.00,SW,225,3.0,5.0,100,0.00,,---,0.00,0.00,VWS V14.01,2013-02-14 07:21:00,
2013-02-14 02:26:00,33.0,33.0,29.00,SSW,202,2.0,3.0,100,0.00,,---,0.00,0.00,VWS V14.01,2013-02-14 07:26:00,
2013-02-14 02:31:00,33.0,33.0,29.00,South,180,0.0,4.0,100,0.00,,---,0.00,0.00,VWS V14.01,2013-02-14 07:31:00,
2013-02-14 02:36:00,33.0,33.0,29.00,SSE,157,2.0,4.0,100,0.00,,---,0.00,0.00,VWS V14.01,2013-02-14 07:36:00,
2013-02-14 02:41:00,33.0,33.0,29.00,South,180,0.0,4.0,100,0.00,,---,0.00,0.00,VWS V14.01,2013-02-14 07:41:00,
2013-02-14 02:46:00,32.0,32.0,29.00,WSW,247,0.0,3.0,100,0.00,,---,0.00,0.00,VWS V14.01,2013-02-14 07:46:00,
2013-02-14 02:51:00,32.0,32.0,29.01,SE,135,0.0,2.0,100,0.00,,---,0.00,0.00,VWS V14.01,2013-02-14 07:51:00,
2013-02-14 02:56:00,32.0,32.0,29.01,South,180,3.0,5.0,100,0.00,,---,0.00,0.00,VWS V14.01,2013-02-14 07:56:00,
2013-02-14 03:01:00,32.0,32.0,29.01,South,180,0.0,2.0,100,0.00,,---,0.00,0.00,VWS V14.01,2013-02-14 08:01:00,
2013-02-14 03:06:00,32.0,32.0,29.01,South,180,0.0,4.0,100,0.00,,---,0.00,0.00,VWS V14.01,2013-02-14 08:06:00,
2013-02-14 03:11:00,32.0,32.0,29.01,SSW,202,2.0,2.0,100,0.00,,---,0.00,0.00,VWS V14.01,2013-02-14 08:11:00,
2013-02-14 03:16:00,32.0,32.0,29.01,SW,225,0.0,6.0,100,0.00,,---,0.00,0.00,VWS V14.01,2013-02-14 08:16:00,
2013-02-14 03:21:00,32.0,32.0,29.01,SW,225,0.0,4.0,100,0.00,,---,0.00,0.00,VWS V14.01,2013-02-14 08:21:00,
2013-02-14 03:26:00,32.0,32.0,29.01,SW,225,3.0,3.0,100,0.00,,---,0.00,0.00,VWS V14.01,2013-02-14 08:26:00,
2013-02-14 03:31:00,32.0,32.0,29.01,SSE,157,3.0,3.0,100,0.00,,---,0.00,0.00,VWS V14.01,2013-02-14 08:31:00,
2013-02-14 03:36:00,32.0,32.0,29.01,South,180,2.0,6.0,100,0.00,,---,0.00,0.00,VWS V14.01,2013-02-14 08:36:00,
2013-02-14 03:41:00,32.0,32.0,29.01,SW,225,1.0,3.0,100,0.00,,---,0.00,0.00,VWS V14.01,2013-02-14 08:41:00,
2013-02-14 03:46:00,32.0,32.0,29.01,South,180,1.0,1.0,100,0.00,,---,0.00,0.00,VWS V14.01,2013-02-14 08:46:00,
2013-02-14 03:51:00,32.0,32.0,29.00,SW,225,3.0,3.0,100,0.00,,---,0.00,0.00,VWS V14.01,2013-02-14 08:51:00,
2013-02-14 03:56:00,32.0,32.0,29.00,SW,225,2.0,3.0,100,0.00,,---,0.00,0.00,VWS V14.01,2013-02-14 08:56:00,
2013-02-14 04:01:00,32.0,32.0,29.00,SSE,157,0.0,2.0,100,0.00,,---,0.00,0.00,VWS V14.01,2013-02-14 09:01:00,
2013-02-14 04:06:00,32.0,32.0,29.00,SSW,202,0.0,3.0,100,0.00,,---,0.00,0.00,VWS V14.01,2013-02-14 09:06:00,
2013-02-14 04:11:00,32.0,32.0,28.99,South,180,2.0,4.0,100,0.00,,---,0.00,0.00,VWS V14.01,2013-02-14 09:11:00,
2013-02-14 04:16:00,32.0,32.0,28.99,SSW,202,4.0,5.0,100,0.00,,---,0.00,0.00,VWS V14.01,2013-02-14 09:16:00,
2013-02-14 04:21:00,32.0,32.0,29.00,South,180,1.0,1.0,100,0.00,,---,0.00,0.00,VWS V14.01,2013-02-14 09:21:00,
2013-02-14 04:26:00,32.0,32.0,29.00,South,180,3.0,5.0,100,0.00,,---,0.00,0.00,VWS V14.01,2013-02-14 09:26:00,
2013-02-14 04:31:00,32.0,32.0,29.00,SSW,202,1.0,4.0,100,0.00,,---,0.00,0.00,VWS V14.01,2013-02-14 09:31:00,
2013-02-14 04:36:00,32.0,32.0,29.00,South,180,2.0,4.0,100,0.00,,---,0.00,0.00,VWS V14.01,2013-02-14 09:36:00,
2013-02-14 04:41:00,32.0,32.0,28.99,South,180,4.0,4.0,100,0.00,,---,0.00,0.00,VWS V14.01,2013-02-14 09:41:00,
2013-02-14 04:46:00,33.0,33.0,28.99,South,180,2.0,3.0,100,0.00,,---,0.00,0.00,VWS V14.01,2013-02-14 09:46:00,
2013-02-14 04:51:00,33.0,33.0,28.99,SSW,202,4.0,4.0,100,0.00,,---,0.00,0.00,VWS V14.01,2013-02-14 09:51:00,
2013-02-14 04:56:00,33.0,33.0,28.99,SSW,202,0.0,5.0,100,0.00,,---,0.00,0.00,VWS V14.01,2013-02-14 09:56:00,
2013-02-14 05:01:00,33.0,33.0,28.99,SSW,202,1.0,2.0,100,0.00,,---,0.00,0.00,VWS V14.01,2013-02-14 10:01:00,
2013-02-14 05:06:00,33.0,33.0,28.99,South,180,1.0,5.0,100,0.00,,---,0.00,0.00,VWS V14.01,2013-02-14 10:06:00,
2013-02-14 05:11:00,33.0,33.0,28.99,SSW,202,3.0,6.0,100,0.00,,---,0.00,0.00,VWS V14.01,2013-02-14 10:11:00,
2013-02-14 05:16:00,33.0,33.0,28.99,SSE,157,0.0,3.0,100,0.00,,---,0.00,0.00,VWS V14.01,2013-02-14 10:16:00,
2013-02-14 05:21:00,33.0,33.0,28.99,South,180,3.0,4.0,100,0.00,,---,0.00,0.00,VWS V14.01,2013-02-14 10:21:00,
2013-02-14 05:26:00,33.0,33.0,28.99,South,180,0.0,3.0,100,0.00,,---,0.00,0.00,VWS V14.01,2013-02-14 10:26:00,
2013-02-14 05:31:00,33.0,33.0,28.99,SSW,202,3.0,6.0,100,0.00,,---,0.00,0.00,VWS V14.01,2013-02-14 10:31:00,
2013-02-14 05:36:00,34.0,34.0,28.99,SSW,202,2.0,7.0,100,0.00,,---,0.00,0.00,VWS V14.01,2013-02-14 10:36:00,
2013-02-14 05:41:00,34.0,34.0,28.99,SSW,202,1.0,4.0,100,0.00,,---,0.00,0.00,VWS V14.01,2013-02-14 10:41:00,
2013-02-14 05:46:00,34.0,34.0,28.99,SSW,202,4.0,5.0,100,0.00,,---,0.00,0.00,VWS V14.01,2013-02-14 10:46:00,
2013-02-14 05:51:00,34.0,34.0,28.99,South,180,1.0,2.0,100,0.00,,---,0.00,0.00,VWS V14.01,2013-02-14 10:51:00,
2013-02-14 05:56:00,34.0,34.0,28.99,SSW,202,5.0,5.0,100,0.00,,---,0.00,0.00,VWS V14.01,2013-02-14 10:56:00,
2013-02-14 06:01:00,34.0,34.0,28.99,South,180,3.0,4.0,100,0.00,,---,0.00,0.00,VWS V14.01,2013-02-14 11:01:00,
2013-02-14 06:06:00,34.0,34.0,28.99,SSW,202,0.0,5.0,100,0.00,,---,0.00,0.00,VWS V14.01,2013-02-14 11:06:00,
2013-02-14 06:11:00,34.0,34.0,29.00,SSW,202,1.0,1.0,100,0.00,,---,0.00,0.00,VWS V14.01,2013-02-14 11:11:00,
2013-02-14 06:16:00,34.0,34.0,29.00,SSW,202,2.0,5.0,100,0.00,,---,0.00,0.00,VWS V14.01,2013-02-14 11:16:00,
2013-02-14 06:21:00,34.0,34.0,28.99,SSW,202,0.0,3.0,100,0.00,,---,0.00,0.00,VWS V14.01,2013-02-14 11:21:00,
2013-02-14 06:26:00,34.0,34.0,28.99,SSW,202,0.0,3.0,100,0.00,,---,0.00,0.00,VWS V14.01,2013-02-14 11:26:00,
2013-02-14 06:31:00,34.0,34.0,28.99,SE,135,0.0,5.0,100,0.00,,---,0.00,0.00,VWS V14.01,2013-02-14 11:31:00,
2013-02-14 06:36:00,34.0,34.0,28.99,South,180,1.0,4.0,100,0.00,,---,0.00,0.00,VWS V14.01,2013-02-14 11:36:00,
2013-02-14 06:41:00,34.0,34.0,29.00,South,180,1.0,4.0,100,0.00,,---,0.00,0.00,VWS V14.01,2013-02-14 11:41:00,
2013-02-14 06:46:00,34.0,34.0,29.00,SSW,202,3.0,5.0,100,0.00,,---,0.00,0.00,VWS V14.01,2013-02-14 11:46:00,
2013-02-14 06:51:00,34.0,34.0,29.00,SSE,157,3.0,6.0,100,0.00,,---,0.00,0.00,VWS V14.01,2013-02-14 11:51:00,
2013-02-14 06:56:00,34.0,34.0,29.00,SW,225,3.0,6.0,100,0.00,,---,0.00,0.00,VWS V14.01,2013-02-14 11:56:00,
2013-02-14 07:01:00,34.0,34.0,29.00,WSW,247,3.0,5.0,100,0.00,,---,0.00,0.00,VWS V14.01,2013-02-14 12:01:00,
2013-02-14 07:06:00,34.0,34.0,29.00,SSE,157,1.0,3.0,100,0.00,,---,0.00,0.00,VWS V14.01,2013-02-14 12:06:00,
2013-02-14 07:11:00,34.0,34.0,29.01,SSW,202,2.0,4.0,100,0.00,,---,0.00,0.00,VWS V14.01,2013-02-14 12:11:00,
2013-02-14 07:16:00,34.0,34.0,29.01,South,180,2.0,2.0,100,0.00,,---,0.00,0.00,VWS V14.01,2013-02-14 12:16:00,
2013-02-14 07:21:00,34.0,34.0,29.01,SSW,202,0.0,4.0,100,0.00,,---,0.00,0.00,VWS V14.01,2013-02-14 12:21:00,
2013-02-14 07:26:00,34.0,34.0,29.01,SSE,157,4.0,6.0,100,0.00,,---,0.00,0.00,VWS V14.01,2013-02-14 12:26:00,
2013-02-14 07:31:00,34.0,34.0,29.00,South,180,1.0,4.0,100,0.00,,---,0.00,0.00,VWS V14.01,2013-02-14 12:31:00,
2013-02-14 07:36:00,34.0,34.0,29.00,South,180,2.0,7.0,100,0.00,,---,0.00,0.00,VWS V14.01,2013-02-14 12:36:00,
2013-02-14 07:41:00,34.0,34.0,29.00,South,180,0.0,7.0,100,0.00,,---,0.00,0.00,VWS V14.01,2013-02-14 12:41:00,
2013-02-14 07:46:00,34.0,34.0,29.00,SSW,202,2.0,4.0,100,0.00,,---,0.00,0.00,VWS V14.01,2013-02-14 12:46:00,
2013-02-14 07:51:00,34.0,34.0,29.00,SSE,157,3.0,4.0,100,0.00,,---,0.00,0.00,VWS V14.01,2013-02-14 12:51:00,
2013-02-14 07:56:00,34.0,34.0,29.00,SSE,157,2.0,4.0,100,0.00,,---,0.00,0.00,VWS V14.01,2013-02-14 12:56:00,
2013-02-14 08:01:00,34.0,34.0,28.99,SW,225,4.0,5.0,100,0.00,,---,0.00,0.00,VWS V14.01,2013-02-14 13:01:00,
2013-02-14 08:06:00,34.0,34.0,28.99,South,180,3.0,6.0,100,0.00,,---,0.00,0.00,VWS V14.01,2013-02-14 13:06:00,
2013-02-14 08:11:00,34.0,34.0,29.00,SE,135,1.0,6.0,100,0.00,,---,0.00,0.00,VWS V14.01,2013-02-14 13:11:00,
2013-02-14 08:16:00,34.0,34.0,29.00,SSW,202,5.0,9.0,100,0.00,,---,0.00,0.00,VWS V14.01,2013-02-14 13:16:00,
2013-02-14 08:21:00,34.0,34.0,28.99,South,180,1.0,4.0,100,0.00,,---,0.00,0.00,VWS V14.01,2013-02-14 13:21:00,
2013-02-14 08:26:00,35.0,35.0,28.99,South,180,4.0,5.0,100,0.00,,---,0.00,0.00,VWS V14.01,2013-02-14 13:26:00,
2013-02-14 08:31:00,35.0,35.0,28.99,South,180,1.0,5.0,100,0.00,,---,0.00,0.00,VWS V14.01,2013-02-14 13:31:00,
2013-02-14 08:36:00,35.0,35.0,28.99,West,270,3.0,5.0,100,0.00,,---,0.00,0.00,VWS V14.01,2013-02-14 13:36:00,
2013-02-14 08:41:00,35.0,35.0,28.98,SSE,157,2.0,6.0,100,0.00,,---,0.00,0.00,VWS V14.01,2013-02-14 13:41:00,
2013-02-14 08:46:00,35.0,35.0,28.98,SE,135,2.0,3.0,100,0.00,,---,0.00,0.00,VWS V14.01,2013-02-14 13:46:00,
2013-02-14 08:51:00,35.0,35.0,28.99,SSW,202,3.0,5.0,100,0.00,,---,0.00,0.00,VWS V14.01,2013-02-14 13:51:00,
2013-02-14 08:56:00,35.0,35.0,28.99,SW,225,2.0,4.0,100,0.00,,---,0.00,0.00,VWS V14.01,2013-02-14 13:56:00,
2013-02-14 09:01:00,35.0,35.0,28.99,SSW,202,3.0,6.0,100,0.00,,---,0.00,0.00,VWS V14.01,2013-02-14 14:01:00,
2013-02-14 09:06:00,35.0,35.0,28.99,South,180,4.0,4.0,100,0.00,,---,0.00,0.00,VWS V14.01,2013-02-14 14:06:00,
2013-02-14 09:11:00,36.0,36.0,28.99,SSW,202,1.0,2.0,100,0.00,,---,0.00,0.00,VWS V14.01,2013-02-14 14:11:00,
2013-02-14 09:16:00,36.0,36.0,28.99,South,180,4.0,6.0,100,0.00,,---,0.00,0.00,VWS V14.01,2013-02-14 14:16:00,
2013-02-14 09:21:00,36.0,36.0,28.98,SW,225,3.0,7.0,100,0.00,,---,0.00,0.00,VWS V14.01,2013-02-14 14:21:00,
2013-02-14 09:26:00,36.0,36.0,28.98,SE,135,6.0,6.0,100,0.00,,---,0.00,0.00,VWS V14.01,2013-02-14 14:26:00,
2013-02-14 09:31:00,37.0,37.0,28.97,SSE,157,5.0,5.0,100,0.00,,---,0.00,0.00,VWS V14.01,2013-02-14 14:31:00,
2013-02-14 09:36:00,37.0,37.0,28.97,SSE,157,8.0,8.0,100,0.00,,---,0.00,0.00,VWS V14.01,2013-02-14 14:36:00,
2013-02-14 09:41:00,38.0,38.0,28.94,SW,225,4.0,10.0,100,0.00,,---,0.00,0.00,VWS V14.01,2013-02-14 14:41:00,
2013-02-14 09:46:00,38.0,38.0,28.94,SSE,157,2.0,6.0,100,0.00,,---,0.00,0.00,VWS V14.01,2013-02-14 14:46:00,
2013-02-14 09:51:00,38.0,38.0,28.91,South,180,3.0,8.0,100,0.00,,---,0.00,0.00,VWS V14.01,2013-02-14 14:51:00,
2013-02-14 09:56:00,38.0,38.0,28.91,SSE,157,2.0,6.0,100,0.00,,---,0.00,0.00,VWS V14.01,2013-02-14 14:56:00,
2013-02-14 10:01:00,38.0,38.0,28.91,SSE,157,3.0,5.0,100,0.00,,---,0.00,0.00,VWS V14.01,2013-02-14 15:01:00,
2013-02-14 10:06:00,38.0,38.0,28.91,SSW,202,3.0,6.0,100,0.00,,---,0.00,0.00,VWS V14.01,2013-02-14 15:06:00,
2013-02-14 10:11:00,39.0,38.5,28.84,SSE,157,0.0,4.0,98,0.00,,---,0.00,0.00,VWS V14.01,2013-02-14 15:11:00,
2013-02-14 10:16:00,39.0,38.0,28.84,South,180,5.0,7.0,96,0.00,,---,0.00,0.00,VWS V14.01,2013-02-14 15:16:00,
2013-02-14 10:21:00,39.0,37.7,28.84,SSW,202,8.0,8.0,95,0.00,,---,0.00,0.00,VWS V14.01,2013-02-14 15:21:00,
2013-02-14 10:26:00,39.0,38.0,28.84,SSW,202,2.0,10.0,96,0.00,,---,0.00,0.00,VWS V14.01,2013-02-14 15:26:00,
2013-02-14 10:31:00,40.0,38.4,28.80,SSW,202,5.0,13.0,94,0.00,,---,0.00,0.00,VWS V14.01,2013-02-14 15:31:00,
2013-02-14 10:36:00,40.0,38.4,28.80,SW,225,5.0,9.0,94,0.00,,---,0.00,0.00,VWS V14.01,2013-02-14 15:36:00,
2013-02-14 10:41:00,40.0,38.1,28.89,SSW,202,6.0,8.0,93,0.00,,---,0.00,0.00,VWS V14.01,2013-02-14 15:41:00,
2013-02-14 10:46:00,41.0,38.9,28.89,SSW,202,7.0,10.0,92,0.00,,---,0.00,0.00,VWS V14.01,2013-02-14 15:46:00,
2013-02-14 10:51:00,41.0,38.6,28.89,SSE,157,3.0,7.0,91,0.00,,---,0.00,0.00,VWS V14.01,2013-02-14 15:51:00,
2013-02-14 10:56:00,41.0,38.3,28.89,SSW,202,5.0,7.0,90,0.00,,---,0.00,0.00,VWS V14.01,2013-02-14 15:56:00,
2013-02-14 11:01:00,42.0,38.7,28.88,SSW,202,3.0,9.0,88,0.00,,---,0.00,0.00,VWS V14.01,2013-02-14 16:01:00,
2013-02-14 11:06:00,42.0,38.7,28.88,SW,225,4.0,8.0,88,0.00,,---,0.00,0.00,VWS V14.01,2013-02-14 16:06:00,
2013-02-14 11:11:00,43.0,39.7,28.83,SSE,157,3.0,8.0,88,0.00,,---,0.00,0.00,VWS V14.01,2013-02-14 16:11:00,
2013-02-14 11:16:00,44.0,39.5,28.83,SW,225,5.0,10.0,84,0.00,,---,0.00,0.00,VWS V14.01,2013-02-14 16:16:00,
2013-02-14 11:21:00,44.0,40.1,28.77,SSW,202,0.0,4.0,86,0.00,,---,0.00,0.00,VWS V14.01,2013-02-14 16:21:00,
2013-02-14 11:27:00,44.0,38.9,28.77,SSW,202,2.0,10.0,82,0.00,,---,0.00,0.00,VWS V14.01,2013-02-14 16:27:00,
2013-02-14 11:32:00,43.0,38.5,29.02,West,270,4.0,7.0,84,0.00,,---,0.00,0.00,VWS V14.01,2013-02-14 16:32:00,
2013-02-14 11:37:00,43.0,39.1,29.02,WSW,247,6.0,7.0,86,0.00,,---,0.00,0.00,VWS V14.01,2013-02-14 16:37:00,
2013-02-14 11:42:00,43.0,38.8,29.04,WNW,292,1.0,3.0,85,0.00,,---,0.00,0.00,VWS V14.01,2013-02-14 16:42:00,
2013-02-14 11:47:00,43.0,39.1,29.04,SW,225,6.0,8.0,86,0.00,,---,0.00,0.00,VWS V14.01,2013-02-14 16:47:00,
2013-02-14 11:52:00,42.0,38.1,29.06,WSW,247,6.0,10.0,86,0.00,,---,0.00,0.00,VWS V14.01,2013-02-14 16:52:00,
2013-02-14 11:57:00,42.0,38.1,29.06,SW,225,3.0,10.0,86,0.00,,---,0.00,0.00,VWS V14.01,2013-02-14 16:57:00,
2013-02-14 12:02:00,42.0,38.7,29.10,SW,225,1.0,7.0,88,0.00,,---,0.00,0.00,VWS V14.01,2013-02-14 17:02:00,
2013-02-14 12:07:00,42.0,38.7,29.10,SSW,202,5.0,6.0,88,0.00,,---,0.00,0.00,VWS V14.01,2013-02-14 17:07:00,
2013-02-14 12:12:00,42.0,39.0,28.93,South,180,0.0,5.0,89,0.00,,---,0.00,0.00,VWS V14.01,2013-02-14 17:12:00,
2013-02-14 12:17:00,43.0,40.0,28.93,WSW,247,3.0,8.0,89,0.00,,---,0.00,0.00,VWS V14.01,2013-02-14 17:17:00,
2013-02-14 12:22:00,43.0,39.4,28.77,WSW,247,3.0,10.0,87,0.00,,---,0.00,0.00,VWS V14.01,2013-02-14 17:22:00,
2013-02-14 12:27:00,44.0,39.5,28.77,SW,225,10.0,11.0,84,0.00,,---,0.00,0.00,VWS V14.01,2013-02-14 17:27:00,
2013-02-14 12:32:00,45.0,40.2,28.95,WSW,247,4.0,7.0,83,0.00,,---,0.00,0.00,VWS V14.01,2013-02-14 17:32:00,
2013-02-14 12:37:00,45.0,39.8,28.95,South,180,10.0,10.0,82,0.00,,---,0.00,0.00,VWS V14.01,2013-02-14 17:37:00,
2013-02-14 12:42:00,45.0,39.5,28.86,SSW,202,1.0,5.0,81,0.00,,---,0.00,0.00,VWS V14.01,2013-02-14 17:42:00,
2013-02-14 12:47:00,45.0,39.5,28.86,NNW,337,3.0,10.0,81,0.00,,---,0.00,0.00,VWS V14.01,2013-02-14 17:47:00,
2013-02-14 12:52:00,46.0,40.2,28.76,SSW,202,6.0,6.0,80,0.00,,---,0.00,0.00,VWS V14.01,2013-02-14 17:52:00,
2013-02-14 12:57:00,46.0,39.9,28.76,SSW,202,4.0,9.0,79,0.00,,---,0.00,0.00,VWS V14.01,2013-02-14 17:57:00,
2013-02-14 13:02:00,46.0,39.9,28.76,SSE,157,3.0,4.0,79,0.00,,---,0.00,0.00,VWS V14.01,2013-02-14 18:02:00,
2013-02-14 13:07:00,46.0,39.5,28.76,SW,225,6.0,8.0,78,0.00,,---,0.00,0.00,VWS V14.01,2013-02-14 18:07:00,
2013-02-14 13:12:00,46.0,40.5,28.76,SSW,202,6.0,6.0,81,0.00,,---,0.00,0.00,VWS V14.01,2013-02-14 18:12:00,
2013-02-14 13:17:00,46.0,39.9,28.76,West,270,6.0,8.0,79,0.00,,---,0.00,0.00,VWS V14.01,2013-02-14 18:17:00,
2013-02-14 13:22:00,45.0,39.5,28.76,WSW,247,5.0,7.0,81,0.00,,---,0.00,0.00,VWS V14.01,2013-02-14 18:22:00,
2013-02-14 13:27:00,46.0,39.9,28.76,WSW,247,1.0,9.0,79,0.00,,---,0.00,0.00,VWS V14.01,2013-02-14 18:27:00,
2013-02-14 13:32:00,46.0,40.5,28.75,SSW,202,4.0,7.0,81,0.00,,---,0.00,0.00,VWS V14.01,2013-02-14 18:32:00,
2013-02-14 13:37:00,47.0,40.8,28.75,SSW,202,6.0,8.0,79,0.00,,---,0.00,0.00,VWS V14.01,2013-02-14 18:37:00,
2013-02-14 13:42:00,47.0,39.8,28.75,SW,225,0.0,3.0,76,0.00,,---,0.00,0.00,VWS V14.01,2013-02-14 18:42:00,
2013-02-14 13:47:00,48.0,40.8,28.75,SSW,202,7.0,9.0,76,0.00,,---,0.00,0.00,VWS V14.01,2013-02-14 18:47:00,
2013-02-14 13:53:00,48.0,40.1,28.75,NNW,337,3.0,10.0,74,0.00,,---,0.00,0.00,VWS V14.01,2013-02-14 18:53:00,
2013-02-14 13:58:00,49.0,40.7,28.75,SSW,202,4.0,6.0,73,0.00,,---,0.00,0.00,VWS V14.01,2013-02-14 18:58:00,
2013-02-14 14:03:00,47.0,38.5,28.75,SSE,157,2.0,8.0,72,0.00,,---,0.00,0.00,VWS V14.01,2013-02-14 19:03:00,
2013-02-14 14:08:00,47.0,39.2,28.75,WSW,247,3.0,8.0,74,0.00,,---,0.00,0.00,VWS V14.01,2013-02-14 19:08:00,
2013-02-14 14:13:00,47.0,39.5,28.76,WSW,247,1.0,7.0,75,0.00,,---,0.00,0.00,VWS V14.01,2013-02-14 19:13:00,
2013-02-14 14:18:00,48.0,40.8,28.76,SSW,202,0.0,3.0,76,0.00,,---,0.00,0.00,VWS V14.01,2013-02-14 19:18:00,
2013-02-14 14:23:00,48.0,40.5,28.75,South,180,0.0,9.0,75,0.00,,---,0.00,0.00,VWS V14.01,2013-02-14 19:23:00,
2013-02-14 14:28:00,47.0,38.5,28.75,NW,315,8.0,10.0,72,0.00,,---,0.00,0.00,VWS V14.01,2013-02-14 19:28:00,
2013-02-14 14:33:00,47.0,38.8,28.85,West,270,3.0,3.0,73,0.00,,---,0.00,0.00,VWS V14.01,2013-02-14 19:33:00,
2013-02-14 14:38:00,47.0,39.2,28.85,SSW,202,6.0,8.0,74,0.00,,---,0.00,0.00,VWS V14.01,2013-02-14 19:38:00,
2013-02-14 14:43:00,46.0,38.5,28.95,WSW,247,0.0,11.0,75,0.00,,---,0.00,0.00,VWS V14.01,2013-02-14 19:43:00,
2013-02-14 14:48:00,46.0,38.9,28.95,SW,225,9.0,10.0,76,0.00,,---,0.00,0.00,VWS V14.01,2013-02-14 19:48:00,
2013-02-14 14:54:00,46.0,38.9,28.97,WSW,247,9.0,9.0,76,0.00,,---,0.00,0.00,VWS V14.01,2013-02-14 19:54:00,
2013-02-14 14:59:00,46.0,38.9,28.97,WNW,292,1.0,6.0,76,0.00,,---,0.00,0.00,VWS V14.01,2013-02-14 19:59:00,
2013-02-14 15:04:00,47.0,39.8,28.75,North,360,1.0,5.0,76,0.00,,---,0.00,0.00,VWS V14.01,2013-02-14 20:04:00,
2013-02-14 15:09:00,48.0,40.5,28.75,WNW,292,6.0,6.0,75,0.00,,---,0.00,0.00,VWS V14.01,2013-02-14 20:09:00,
2013-02-14 15:14:00,48.0,40.8,28.76,WNW,292,0.0,0.0,76,0.00,,---,0.00,0.00,VWS V14.01,2013-02-14 20:14:00,
2013-02-14 15:19:00,47.0,39.2,28.76,SW,225,6.0,8.0,74,0.00,,---,0.00,0.00,VWS V14.01,2013-02-14 20:19:00,
2013-02-14 15:24:00,46.0,39.5,28.97,WNW,292,3.0,3.0,78,0.00,,---,0.00,0.00,VWS V14.01,2013-02-14 20:24:00,
2013-02-14 15:29:00,45.0,39.8,28.97,NNE,22,0.0,5.0,82,0.00,,---,0.00,0.00,VWS V14.01,2013-02-14 20:29:00,
2013-02-14 15:34:00,46.0,40.8,28.79,South,180,1.0,8.0,82,0.00,,---,0.00,0.00,VWS V14.01,2013-02-14 20:34:00,
2013-02-14 15:39:00,47.0,40.5,28.79,West,270,2.0,10.0,78,0.00,,---,0.00,0.00,VWS V14.01,2013-02-14 20:39:00,
2013-02-14 15:44:00,48.0,41.8,28.79,NW,315,1.0,5.0,79,0.00,,---,0.00,0.00,VWS V14.01,2013-02-14 20:44:00,
2013-02-14 15:49:00,48.0,41.2,28.79,West,270,4.0,5.0,77,0.00,,---,0.00,0.00,VWS V14.01,2013-02-14 20:49:00,
2013-02-14 15:54:00,46.0,38.9,28.80,West,270,3.0,6.0,76,0.00,,---,0.00,0.00,VWS V14.01,2013-02-14 20:54:00,
2013-02-14 16:00:00,46.0,40.2,28.80,NNW,337,2.0,7.0,80,0.00,,---,0.00,0.00,VWS V14.01,2013-02-14 21:00:00,
2013-02-14 16:05:00,45.0,38.9,28.81,SSW,202,4.0,4.0,79,0.00,,---,0.00,0.00,VWS V14.01,2013-02-14 21:05:00,
2013-02-14 16:10:00,45.0,38.9,28.81,West,270,0.0,3.0,79,0.00,,---,0.00,0.00,VWS V14.01,2013-02-14 21:10:00,
2013-02-14 16:15:00,45.0,38.2,28.81,WNW,292,3.0,3.0,77,0.00,,---,0.00,0.00,VWS V14.01,2013-02-14 21:15:00,
2013-02-14 16:20:00,45.0,38.2,28.81,NW,315,3.0,8.0,77,0.00,,---,0.00,0.00,VWS V14.01,2013-02-14 21:20:00,
2013-02-14 16:25:00,45.0,37.9,28.82,NW,315,1.0,4.0,76,0.00,,---,0.00,0.00,VWS V14.01,2013-02-14 21:25:00,
2013-02-14 16:30:00,45.0,37.6,28.82,WNW,292,11.0,11.0,75,0.00,,---,0.00,0.00,VWS V14.01,2013-02-14 21:30:00,
2013-02-14 16:35:00,44.0,37.6,28.83,SW,225,0.0,3.0,78,0.00,,---,0.00,0.00,VWS V14.01,2013-02-14 21:35:00,
2013-02-14 16:40:00,44.0,37.3,28.83,SSW,202,0.0,5.0,77,0.00,,---,0.00,0.00,VWS V14.01,2013-02-14 21:40:00,
2013-02-14 16:45:00,44.0,37.3,28.83,WNW,292,1.0,6.0,77,0.00,,---,0.00,0.00,VWS V14.01,2013-02-14 21:45:00,
2013-02-14 16:50:00,43.0,36.6,28.83,WNW,292,2.0,7.0,78,0.00,,---,0.00,0.00,VWS V14.01,2013-02-14 21:50:00,
2013-02-14 16:55:00,43.0,36.9,28.84,West,270,3.0,7.0,79,0.00,,---,0.00,0.00,VWS V14.01,2013-02-14 21:55:00,
2013-02-14 17:00:00,42.0,36.0,28.84,WNW,292,3.0,5.0,79,0.00,,---,0.00,0.00,VWS V14.01,2013-02-14 22:00:00,
2013-02-14 17:05:00,42.0,36.3,28.85,West,270,0.0,5.0,80,0.00,,---,0.00,0.00,VWS V14.01,2013-02-14 22:05:00,
2013-02-14 17:10:00,42.0,36.6,28.85,WNW,292,0.0,4.0,81,0.00,,---,0.00,0.00,VWS V14.01,2013-02-14 22:10:00,
2013-02-14 17:15:00,42.0,36.9,28.85,WNW,292,5.0,5.0,82,0.00,,---,0.00,0.00,VWS V14.01,2013-02-14 22:15:00,
2013-02-14 17:20:00,41.0,35.6,28.85,WNW,292,7.0,8.0,81,0.00,,---,0.00,0.00,VWS V14.01,2013-02-14 22:20:00,
2013-02-14 17:25:00,41.0,35.6,29.06,WNW,292,2.0,5.0,81,0.00,,---,0.00,0.00,VWS V14.01,2013-02-14 22:25:00,
2013-02-14 17:30:00,41.0,35.6,29.06,WNW,292,1.0,3.0,81,0.00,,---,0.00,0.00,VWS V14.01,2013-02-14 22:30:00,
2013-02-14 17:35:00,41.0,35.6,29.07,NW,315,1.0,8.0,81,0.00,,---,0.00,0.00,VWS V14.01,2013-02-14 22:35:00,
2013-02-14 17:40:00,41.0,35.3,29.07,NE,45,0.0,4.0,80,0.00,,---,0.00,0.00,VWS V14.01,2013-02-14 22:40:00,
2013-02-14 17:45:00,40.0,34.3,29.07,NW,315,1.0,5.0,80,0.00,,---,0.00,0.00,VWS V14.01,2013-02-14 22:45:00,
2013-02-14 17:50:00,40.0,34.3,29.07,NW,315,0.0,3.0,80,0.00,,---,0.00,0.00,VWS V14.01,2013-02-14 22:50:00,
2013-02-14 17:55:00,40.0,35.0,29.07,NW,315,2.0,4.0,82,0.00,,---,0.00,0.00,VWS V14.01,2013-02-14 22:55:00,
2013-02-14 18:00:00,40.0,35.9,29.07,NW,315,4.0,6.0,85,0.00,,---,0.00,0.00,VWS V14.01,2013-02-14 23:00:00,
2013-02-14 18:05:00,40.0,35.9,29.08,SW,225,0.0,3.0,85,0.00,,---,0.00,0.00,VWS V14.01,2013-02-14 23:05:00,
2013-02-14 18:10:00,40.0,35.9,29.08,NW,315,3.0,4.0,85,0.00,,---,0.00,0.00,VWS V14.01,2013-02-14 23:10:00,
2013-02-14 18:15:00,39.0,34.9,29.07,West,270,0.0,1.0,85,0.00,,---,0.00,0.00,VWS V14.01,2013-02-14 23:15:00,
2013-02-14 18:20:00,39.0,34.9,29.07,NNW,337,0.0,2.0,85,0.00,,---,0.00,0.00,VWS V14.01,2013-02-14 23:20:00,
2013-02-14 18:25:00,39.0,34.9,29.09,WSW,247,0.0,5.0,85,0.00,,---,0.00,0.00,VWS V14.01,2013-02-14 23:25:00,
2013-02-14 18:30:00,39.0,34.6,29.09,WNW,292,3.0,4.0,84,0.00,,---,0.00,0.00,VWS V14.01,2013-02-14 23:30:00,
2013-02-14 18:35:00,39.0,34.0,29.09,West,270,3.0,5.0,82,0.00,,---,0.00,0.00,VWS V14.01,2013-02-14 23:35:00,
2013-02-14 18:40:00,39.0,33.4,29.09,WSW,247,1.0,4.0,80,0.00,,---,0.00,0.00,VWS V14.01,2013-02-14 23:40:00,
2013-02-14 18:45:00,39.0,32.1,29.10,South,180,0.0,10.0,76,0.00,,---,0.00,0.00,VWS V14.01,2013-02-14 23:45:00,
2013-02-14 18:50:00,39.0,32.1,29.10,SSE,157,2.0,3.0,76,0.00,,---,0.00,0.00,VWS V14.01,2013-02-14 23:50:00,
2013-02-14 18:55:00,39.0,32.7,29.10,WNW,292,1.0,2.0,78,0.00,,---,0.00,0.00,VWS V14.01,2013-02-14 23:55:00,
2013-02-14 19:00:00,39.0,33.4,29.10,NNW,337,1.0,5.0,80,0.00,,---,0.00,0.00,VWS V14.01,2013-02-15 00:00:00,
2013-02-14 19:05:00,39.0,34.0,29.11,NW,315,1.0,4.0,82,0.00,,---,0.00,0.00,VWS V14.01,2013-02-15 00:05:00,
2013-02-14 19:10:00,39.0,34.3,29.11,NW,315,7.0,7.0,83,0.00,,---,0.00,0.00,VWS V14.01,2013-02-15 00:10:00,
2013-02-14 19:15:00,39.0,34.9,29.11,WNW,292,1.0,4.0,85,0.00,,---,0.00,0.00,VWS V14.01,2013-02-15 00:15:00,
2013-02-14 19:20:00,39.0,35.2,29.11,NW,315,1.0,2.0,86,0.00,,---,0.00,0.00,VWS V14.01,2013-02-15 00:20:00,
2013-02-14 19:25:00,39.0,35.2,29.12,NW,315,4.0,5.0,86,0.00,,---,0.00,0.00,VWS V14.01,2013-02-15 00:25:00,
2013-02-14 19:30:00,39.0,35.5,29.12,NW,315,6.0,8.0,87,0.00,,---,0.00,0.00,VWS V14.01,2013-02-15 00:30:00,
2013-02-14 19:35:00,39.0,35.5,29.13,WNW,292,0.0,4.0,87,0.00,,---,0.00,0.00,VWS V14.01,2013-02-15 00:35:00,
2013-02-14 19:40:00,39.0,35.8,29.13,South,180,0.0,3.0,88,0.00,,---,0.00,0.00,VWS V14.01,2013-02-15 00:40:00,
2013-02-14 19:45:00,39.0,36.0,29.13,NW,315,3.0,5.0,89,0.00,,---,0.00,0.00,VWS V14.01,2013-02-15 00:45:00,
2013-02-14 19:50:00,39.0,36.0,29.13,NNW,337,0.0,5.0,89,0.00,,---,0.00,0.00,VWS V14.01,2013-02-15 00:50:00,
2013-02-14 19:55:00,39.0,36.0,29.13,West,270,0.0,2.0,89,0.00,,---,0.00,0.00,VWS V14.01,2013-02-15 00:55:00,
2013-02-14 20:00:00,38.0,35.3,29.13,WNW,292,0.0,4.0,90,0.00,,---,0.00,0.00,VWS V14.01,2013-02-15 01:00:00,
2013-02-14 20:05:00,38.0,35.0,29.13,NW,315,0.0,0.0,89,0.00,,---,0.00,0.00,VWS V14.01,2013-02-15 01:05:00,
2013-02-14 20:10:00,38.0,35.0,29.13,NW,315,0.0,0.0,89,0.00,,---,0.00,0.00,VWS V14.01,2013-02-15 01:10:00,
2013-02-14 20:15:00,38.0,34.8,29.14,West,270,0.0,0.0,88,0.00,,---,0.00,0.00,VWS V14.01,2013-02-15 01:15:00,
2013-02-14 20:20:00,38.0,34.8,29.14,West,270,3.0,8.0,88,0.00,,---,0.00,0.00,VWS V14.01,2013-02-15 01:20:00,
2013-02-14 20:25:00,38.0,34.8,29.15,NNW,337,0.0,0.0,88,0.00,,---,0.00,0.00,VWS V14.01,2013-02-15 01:25:00,
2013-02-14 20:30:00,38.0,34.8,29.15,SW,225,0.0,2.0,88,0.00,,---,0.00,0.00,VWS V14.01,2013-02-15 01:30:00,
2013-02-14 20:35:00,38.0,34.8,29.15,NW,315,0.0,0.0,88,0.00,,---,0.00,0.00,VWS V14.01,2013-02-15 01:35:00,
2013-02-14 20:40:00,38.0,34.8,29.15,NW,315,0.0,3.0,88,0.00,,---,0.00,0.00,VWS V14.01,2013-02-15 01:40:00,
2013-02-14 20:45:00,38.0,34.8,29.15,WNW,292,0.0,0.0,88,0.00,,---,0.00,0.00,VWS V14.01,2013-02-15 01:45:00,
2013-02-14 20:50:00,38.0,35.0,29.15,NW,315,0.0,2.0,89,0.00,,---,0.00,0.00,VWS V14.01,2013-02-15 01:50:00,
2013-02-14 20:55:00,38.0,35.3,29.15,WNW,292,0.0,1.0,90,0.00,,---,0.00,0.00,VWS V14.01,2013-02-15 01:55:00,
2013-02-14 21:00:00,38.0,35.3,29.15,NW,315,0.0,3.0,90,0.00,,---,0.00,0.00,VWS V14.01,2013-02-15 02:00:00,
2013-02-14 21:05:00,38.0,35.3,29.15,WNW,292,1.0,1.0,90,0.00,,---,0.00,0.00,VWS V14.01,2013-02-15 02:05:00,
2013-02-14 21:10:00,38.0,35.3,29.15,NNW,337,1.0,8.0,90,0.00,,---,0.00,0.00,VWS V14.01,2013-02-15 02:10:00,
2013-02-14 21:15:00,38.0,35.3,29.15,North,360,0.0,3.0,90,0.00,,---,0.00,0.00,VWS V14.01,2013-02-15 02:15:00,
2013-02-14 21:20:00,38.0,35.3,29.15,WNW,292,0.0,3.0,90,0.00,,---,0.00,0.00,VWS V14.01,2013-02-15 02:20:00,
2013-02-14 21:25:00,37.0,34.6,29.15,WNW,292,0.0,1.0,91,0.00,,---,0.00,0.00,VWS V14.01,2013-02-15 02:25:00,
2013-02-14 21:31:00,37.0,34.6,29.15,SW,225,0.0,2.0,91,0.00,,---,0.00,0.00,VWS V14.01,2013-02-15 02:31:00,
2013-02-14 21:36:00,37.0,34.6,29.17,South,180,0.0,0.0,91,0.00,,---,0.00,0.00,VWS V14.01,2013-02-15 02:36:00,
2013-02-14 21:41:00,37.0,34.9,29.16,WNW,292,0.0,0.0,92,0.00,,---,0.00,0.00,VWS V14.01,2013-02-15 02:41:00,
2013-02-14 21:46:00,37.0,35.2,29.16,WSW,247,0.0,0.0,93,0.00,,---,0.00,0.00,VWS V14.01,2013-02-15 02:46:00,
2013-02-14 21:51:00,37.0,35.2,29.16,WSW,247,0.0,2.0,93,0.00,,---,0.00,0.00,VWS V14.01,2013-02-15 02:51:00,
2013-02-14 21:56:00,36.0,34.2,29.16,SW,225,0.0,0.0,93,0.00,,---,0.00,0.00,VWS V14.01,2013-02-15 02:56:00,
2013-02-14 22:01:00,36.0,34.4,29.16,West,270,0.0,0.0,94,0.00,,---,0.00,0.00,VWS V14.01,2013-02-15 03:01:00,
2013-02-14 22:06:00,36.0,34.4,29.16,SSW,202,0.0,2.0,94,0.00,,---,0.00,0.00,VWS V14.01,2013-02-15 03:06:00,
2013-02-14 22:11:00,36.0,34.7,29.16,SSW,202,0.0,0.0,95,0.00,,---,0.00,0.00,VWS V14.01,2013-02-15 03:11:00,
2013-02-14 22:16:00,35.0,33.7,29.16,WSW,247,0.0,1.0,95,0.00,,---,0.00,0.00,VWS V14.01,2013-02-15 03:16:00,
2013-02-14 22:21:00,35.0,34.0,29.16,West,270,0.0,2.0,96,0.00,,---,0.00,0.00,VWS V14.01,2013-02-15 03:21:00,
2013-02-14 22:26:00,35.0,34.0,29.16,WSW,247,0.0,0.0,96,0.00,,---,0.00,0.00,VWS V14.01,2013-02-15 03:26:00,
2013-02-14 22:31:00,34.0,33.2,29.17,WSW,247,0.0,0.0,97,0.00,,---,0.00,0.00,VWS V14.01,2013-02-15 03:31:00,
2013-02-14 22:37:00,34.0,33.8,29.17,North,360,0.0,0.0,99,0.00,,---,0.00,0.00,VWS V14.01,2013-02-15 03:37:00,
2013-02-14 22:42:00,34.0,33.8,29.16,SW,225,0.0,1.0,99,0.00,,---,0.00,0.00,VWS V14.01,2013-02-15 03:42:00,
2013-02-14 22:47:00,34.0,34.0,29.16,WSW,247,0.0,0.0,100,0.00,,---,0.00,0.00,VWS V14.01,2013-02-15 03:47:00,
2013-02-14 22:52:00,33.0,32.8,29.16,NW,315,0.0,1.0,99,0.00,,---,0.00,0.00,VWS V14.01,2013-02-15 03:52:00,
2013-02-14 22:57:00,33.0,33.0,29.16,NW,315,0.0,1.0,100,0.00,,---,0.00,0.00,VWS V14.01,2013-02-15 03:57:00,
2013-02-14 23:02:00,33.0,33.0,29.16,SW,225,0.0,0.0,100,0.00,,---,0.00,0.00,VWS V14.01,2013-02-15 04:02:00,
2013-02-14 23:07:00,33.0,33.0,29.16,SW,225,0.0,0.0,100,0.00,,---,0.00,0.00,VWS V14.01,2013-02-15 04:07:00,
2013-02-14 23:12:00,33.0,33.0,29.16,SSW,202,0.0,1.0,100,0.00,,---,0.00,0.00,VWS V14.01,2013-02-15 04:12:00,
2013-02-14 23:17:00,33.0,33.0,29.16,West,270,0.0,0.0,100,0.00,,---,0.00,0.00,VWS V14.01,2013-02-15 04:17:00,
2013-02-14 23:22:00,32.0,32.0,29.17,NNW,337,0.0,0.0,100,0.00,,---,0.00,0.00,VWS V14.01,2013-02-15 04:22:00,
2013-02-14 23:27:00,32.0,32.0,29.17,NNW,337,0.0,0.0,100,0.00,,---,0.00,0.00,VWS V14.01,2013-02-15 04:27:00,
2013-02-14 23:32:00,32.0,32.0,29.16,South,180,0.0,0.0,100,0.00,,---,0.00,0.00,VWS V14.01,2013-02-15 04:32:00,
2013-02-14 23:37:00,31.0,31.0,29.16,South,180,0.0,0.0,100,0.00,,---,0.00,0.00,VWS V14.01,2013-02-15 04:37:00,
2013-02-14 23:42:00,31.0,31.0,29.15,South,180,0.0,0.0,100,0.00,,---,0.00,0.00,VWS V14.01,2013-02-15 04:42:00,
2013-02-14 23:47:00,31.0,31.0,29.15,South,180,0.0,0.0,100,0.00,,---,0.00,0.00,VWS V14.01,2013-02-15 04:47:00,
2013-02-14 23:52:00,30.0,30.0,29.15,WSW,247,0.0,0.0,100,0.00,,---,0.00,0.00,VWS V14.01,2013-02-15 04:52:00,
2013-02-14 23:57:00,30.0,30.0,29.15,WSW,247,0.0,0.0,100,0.00,,---,0.00,0.00,VWS V14.01,2013-02-15 04:57:00,